sat.trackr.live / text

‹ back to catalog

STARLINK-5280

NORAD 54166 · 2022-141K

PAYLOAD ACTIVE UNKNOWN

§ Identity

Operator
Country
US
Launch date
2022-10-28
Launch site
AFWTR
Launch vehicle
Mass (kg)
RCS (m²)

Purposes: comms

External: N2YO · Heavens-Above · Gunter

§ Orbital elements

Epoch: 2026-05-24T22:01:48.442656Z

Period
95.44 min
Inclination
53.2140°
Eccentricity
0.0001351
Mean motion
15.08839584 rev/d
Perigee alt
538.8 km
Apogee alt
540.7 km
Semi-major
6,917.9 km
B*
6.5844e-5
RAAN
22.0475°
Arg perigee
91.0787°
Mean anomaly
269.0360°
Rev number
19,736

§ Raw data

STARLINK-52801 54166U 22141K   26144.91792179  .00000760  00000+0  65844-4 0  99972 54166  53.2140  22.0475 0001351  91.0787 269.0360 15.08839584197364

JSON: /api/v1/satellites/54166 · /tle

For live sub-satellite position, see the globe view (requires WebGL).

§ Visibility from observer

Set your observer location to see the next 7 days of passes ≥ 10°. The values pass through the URL so the page stays shareable.

No JS? Fill the form by hand. The geolocation button needs JavaScript.